This demonstration page uses our WeatherBlox Daily Observations layout. Learn more.

Left ArrowRight Arrow

39.51506, -84.39828

Hourly Observations for March 11, 2021

Temp ( °F °C ) Dew Point ( °F °C ) Humidity (%) Winds ( mph kmh ) Pressure ( in mb ) Visibility ( mi km ) Precip ( " mm )
12:15 am 00:15 Clear 61 16.3 39 4.1 44 44 S 14 22 30.12 1020 10 16 N/A
12:35 am 00:35 Mostly Cloudy 61 16.2 39 4.1 45 45 S 14 22 30.12 1020 10 16 N/A
12:55 am 00:55 Clear 61 16 40 4.2 46 46 S 13 20 30.12 1020 10 16 N/A
1:15 am 01:15 Mostly Cloudy 60 15.8 40 4.4 47 47 S 14 22 30.12 1020 10 16 N/A
1:35 am 01:35 Cloudy 61 16.3 40 4.6 46 46 S 15 24 30.11 1020 10 16 N/A
1:55 am 01:55 Cloudy 62 16.5 40 4.5 45 45 SSW 15 24 30.12 1020 10 16 N/A
2:15 am 02:15 Cloudy 62 16.6 40 4.5 45 45 SSW 16 26 30.12 1020 10 16 N/A
2:35 am 02:35 Cloudy 62 16.9 40 4.5 44 44 SSW 18 30 30.12 1020 10 16 N/A
2:55 am 02:55 Cloudy 63 17.1 40 4.6 44 44 SSW 17 28 30.11 1020 10 16 N/A
3:15 am 03:15 Cloudy 63 17 41 4.8 45 45 SSW 18 30 30.11 1020 10 16 N/A
3:35 am 03:35 Cloudy 63 17 41 5 45 45 SSW 17 28 30.11 1020 10 16 N/A
3:55 am 03:55 Cloudy 63 17.1 41 5.2 46 46 SSW 18 30 30.10 1019 10 16 N/A
4:15 am 04:15 Cloudy 63 17 42 5.5 47 47 SSW 14 22 30.11 1020 10 16 N/A
4:35 am 04:35 Cloudy 63 17.1 42 5.7 47 47 SSW 15 24 30.11 1020 10 16 N/A
4:55 am 04:55 Cloudy 63 17.2 43 6.1 48 48 SSW 15 24 30.11 1020 10 16 N/A
5:15 am 05:15 Cloudy 63 17.3 43 6.3 49 49 SSW 15 24 30.11 1020 10 16 N/A
5:35 am 05:35 Cloudy 63 17.3 44 6.6 50 50 SSW 15 24 30.12 1020 10 16 N/A
5:55 am 05:55 Cloudy 63 17.3 44 6.9 51 51 SSW 16 26 30.11 1020 10 16 N/A
6:15 am 06:15 Cloudy 64 17.5 45 7 50 50 SSW 16 26 30.12 1020 10 16 N/A
6:35 am 06:35 Cloudy 63 17.4 45 7.3 52 52 SSW 16 26 30.12 1020 10 16 N/A
6:55 am 06:55 Cloudy 63 17.3 45 7.3 52 52 SSW 15 24 30.12 1020 10 16 N/A
7:15 am 07:15 Cloudy 63 17.3 45 7.4 52 52 SSW 18 30 30.12 1020 10 16 N/A
7:35 am 07:35 Cloudy 63 17.1 46 7.6 54 54 SSW 16 26 30.12 1020 10 16 N/A
7:55 am 07:55 Cloudy 63 17.2 46 7.7 54 54 SSW 15 24 30.13 1020 10 16 N/A
8:15 am 08:15 Mostly Cloudy 63 17.2 46 7.9 55 55 SSW 17 28 30.14 1021 10 16 N/A
8:35 am 08:35 Mostly Cloudy 64 17.8 48 8.8 56 56 SSW 16 26 30.14 1021 10 16 N/A
8:55 am 08:55 Cloudy 63 17.4 48 8.7 57 57 SSW 18 30 30.15 1021 10 16 N/A
9:15 am 09:15 Mostly Cloudy 64 17.6 48 9 57 57 SSW 18 30 30.15 1021 10 16 N/A
9:35 am 09:35 Cloudy 63 17.3 48 9.1 59 59 SSW 18 30 30.15 1021 10 16 N/A
9:55 am 09:55 Mostly Cloudy 64 17.7 49 9.3 58 58 SSW 20 31 30.14 1021 10 16 N/A
10:15 am 10:15 Mostly Cloudy 66 18.7 50 9.9 57 57 SSW 21 33 30.14 1021 10 16 N/A
10:35 am 10:35 Mostly Cloudy 64 17.8 50 10 60 60 SSW 24 39 30.14 1021 10 16 N/A
10:55 am 10:55 Mostly Cloudy with Nearby Thunderstorms 64 18 51 10.3 61 61 SSW 18 30 30.14 1021 10 16 N/A
11:15 am 11:15 Cloudy with Light Rain 63 17.1 52 11.2 68 68 SSW 21 33 30.14 1021 10 16 N/A
11:35 am 11:35 Cloudy 64 17.9 53 11.5 66 66 SW 18 30 30.15 1021 10 16 N/A
11:55 am 11:55 Cloudy 65 18.3 52 11 63 63 SSW 25 41 30.15 1021 10 16 N/A
12:15 pm 12:15 Cloudy with Light Rain 62 16.6 54 12.2 75 75 SSW 15 24 30.15 1021 10 16 N/A
12:35 pm 12:35 Cloudy with Nearby Thunderstorms 60 15.7 55 12.7 82 82 SSW 17 28 30.15 1021 7 11 0.01 0.25
12:55 pm 12:55 Cloudy with Rain 58 14.7 56 13.5 93 93 SSW 14 22 30.18 1022 5 8 0.08 2.03
1:35 pm 13:35 Partly Cloudy 58 14.6 57 14 96 96 SSW 13 20 30.16 1021 10 16 0.05 1.27
1:55 pm 13:55 Mostly Cloudy with Light Rain 59 15.1 58 14.3 95 95 SSW 15 24 30.14 1021 10 16 0.05 1.27
2:15 pm 14:15 Cloudy 61 16.3 58 14.5 89 89 SSW 20 31 30.13 1020 10 16 N/A
2:35 pm 14:35 Cloudy 62 16.5 57 13.9 85 85 SSW 20 31 30.13 1020 10 16 N/A
2:55 pm 14:55 Cloudy 62 16.4 56 13.4 83 83 SSW 16 26 30.13 1020 10 16 N/A
3:15 pm 15:15 Mostly Cloudy 63 17 55 13 77 77 SSW 18 30 30.11 1020 10 16 N/A
3:35 pm 15:35 Mostly Cloudy 62 16.7 56 13.2 80 80 SSW 16 26 30.11 1020 10 16 N/A
3:55 pm 15:55 Cloudy 62 16.9 56 13.3 79 79 SW 15 24 30.11 1020 10 16 N/A
4:15 pm 16:15 Cloudy 62 16.5 56 13.4 82 82 SSW 14 22 30.11 1020 10 16 N/A
4:35 pm 16:35 Cloudy 61 16.3 56 13.4 83 83 SW 12 19 30.11 1020 10 16 N/A
4:55 pm 16:55 Cloudy 61 16.1 56 13.3 84 84 SW 13 20 30.11 1020 10 16 N/A
5:15 pm 17:15 Cloudy with Rain 60 15.4 57 13.8 90 90 SSW 9 15 30.12 1020 7 11 0.01 0.25
5:35 pm 17:35 Cloudy with Heavy Rain 58 14.7 57 14.1 96 96 SW 9 15 30.12 1020 3 5 0.14 3.56
5:55 pm 17:55 Cloudy with Light Rain 58 14.3 58 14.2 99 99 S 6 9 30.10 1019 5 8 0.25 6.35
6:15 pm 18:15 Cloudy with Light Rain 57 14 57 14 100 100 SW 5 7 30.11 1020 7 11 N/A
6:35 pm 18:35 Cloudy with Rain 57 14 N/A N/A W 5 7 30.12 1020 5 8 0.03 0.76
6:55 pm 18:55 Cloudy with Rain 57 14 N/A N/A WNW 8 13 30.16 1021 4 6 0.12 3.05
7:15 pm 19:15 Cloudy with Nearby Thunderstorms 57 14 N/A N/A WSW 3 6 30.15 1021 4 6 0.08 2.03
7:35 pm 19:35 Cloudy with Rain 57 14 N/A N/A SW 6 9 30.16 1021 4 6 0.18 4.57
7:55 pm 19:55 Cloudy with Light Rain 57 14 N/A N/A W 6 9 30.18 1022 5 8 0.24 6.10
8:15 pm 20:15 Cloudy with Light Rain 57 14 N/A N/A N N/A 30.17 1022 7 11 0.02 0.51
8:35 pm 20:35 Cloudy with Light Rain 57 14 N/A N/A N N/A 30.18 1022 5 8 0.03 0.76
8:55 pm 20:55 Cloudy with Light Rain 55 13 N/A N/A N N/A 30.18 1022 4 6 0.04 1.02
9:15 pm 21:15 Cloudy with Light Rain 55 13 N/A N/A N N/A 30.18 1022 5 8 N/A
9:35 pm 21:35 Cloudy with Mist and Fog 55 13 N/A N/A SSW 5 7 30.19 1022 2 3 N/A
9:55 pm 21:55 Cloudy with Light Rain 55 13 N/A N/A WSW 5 7 30.20 1023 5 8 0.01 0.25
10:15 pm 22:15 Cloudy with Haze 55 13 N/A N/A WSW 7 11 30.22 1023 7 11 N/A
10:35 pm 22:35 Cloudy with Light Rain 55 13 N/A N/A SSW 8 13 30.22 1023 7 11 N/A
10:55 pm 22:55 Cloudy with Haze 55 13 N/A N/A SW 3 6 30.22 1023 7 11 N/A
11:15 pm 23:15 Cloudy with Light Rain 55 13 N/A N/A SSW 6 9 30.22 1023 4 6 N/A
11:35 pm 23:35 Cloudy 55 13 N/A N/A SW 3 6 30.22 1023 7 11 N/A
11:55 pm 23:55 Cloudy with Haze 55 13 N/A N/A SW 3 6 30.23 1024 7 11 N/A

Powered by AerisWeather